This is the latest recevied weather packets stored in our database for station/object K6TTR. If no packets are shown the sender has not sent any weather packets the latest 10 day(s).
| Time | Temp. | Humidity | Pressure | Rain* | Wind** | Luminosity | Snow |
|---|---|---|---|---|---|---|---|
| 1777755226 | 18.33° C | 44% | 1016 hPa | 0 mm | - | 232 W/m² | - |
| 1777754911 | 18.33° C | 44% | 1016.2 hPa | 0 mm | - | 178 W/m² | - |
| 1777754615 | 18.33° C | 42% | 1016.2 hPa | 0 mm | - | 255 W/m² | - |
| 1777754320 | 18.89° C | 43% | 1016.2 hPa | 0 mm | - | 1002 W/m² | - |
| 1777754026 | 18.33° C | 44% | 1016.3 hPa | 0 mm | - | 916 W/m² | - |
| 1777753711 | 18.33° C | 46% | 1016.3 hPa | 0 mm | - | 318 W/m² | - |
| 1777753416 | 18.33° C | 44% | 1016.3 hPa | 0 mm | - | 896 W/m² | - |
| 1777753125 | 18.33° C | 45% | 1016.4 hPa | 0 mm | - | 896 W/m² | - |
| 1777752827 | 18.33° C | 47% | 1016.5 hPa | 0 mm | - | 970 W/m² | - |
| 1777752512 | 17.78° C | 48% | 1016.5 hPa | 0 mm | - | 970 W/m² | - |
| 1777752217 | 17.78° C | 46% | 1016.5 hPa | 0 mm | - | 459 W/m² | - |
| 1777751922 | 17.78° C | 48% | 1016.5 hPa | 0 mm | - | 635 W/m² | - |
| 1777751628 | 17.22° C | 49% | 1016.5 hPa | 0 mm | - | 362 W/m² | - |
| 1777751314 | 17.22° C | 48% | 1016.5 hPa | 0 mm | - | 510 W/m² | - |
| 1777751018 | 17.22° C | 50% | 1016.5 hPa | 0 mm | - | 408 W/m² | - |
| 1777750724 | 17.22° C | 50% | 1016.5 hPa | 0 mm | - | 385 W/m² | - |
| 1777750429 | 17.22° C | 50% | 1016.5 hPa | 0 mm | - | 341 W/m² | - |
| 1777750116 | 16.67° C | 48% | 1016.3 hPa | 0 mm | - | 541 W/m² | - |
| 1777749822 | 16.67° C | 52% | 1016.4 hPa | 0 mm | - | 332 W/m² | - |
| 1777749529 | 16.67° C | 53% | 1016.3 hPa | 0 mm | - | 408 W/m² | - |
| 1777749213 | 16.67° C | 54% | 1016.4 hPa | 0 mm | - | 364 W/m² | - |
| 1777748919 | 16.11° C | 57% | 1016.3 hPa | 0 mm | - | 555 W/m² | - |
| 1777748624 | 16.11° C | 57% | 1016.4 hPa | 0 mm | - | 387 W/m² | - |
| 1777748329 | 15.56° C | 59% | 1016.4 hPa | 0 mm | - | 464 W/m² | - |
| 1777748012 | 15.56° C | 62% | 1016.3 hPa | 0 mm | - | 343 W/m² | - |
* Rain latest hour (hover to see other rain measurements)
** Current wind speed in m/s (hover to see current wind gust speed)